Philadelphia, PA

3:44 PM EST on December 05, 2019 (GMT -0500)
Philadelphia International

Weather History for KPHL - May, 2019

Change the Weather History Date:

Saturday, May 11, 2019

  Actual Average Record
Temperature  
Mean Temperature 62 °F 62 °F  
Max Temperature 70 °F 72 °F 93 °F (1896)
Min Temperature 53 °F 52 °F 28 °F (1966)
Degree Days  
Heating Degree Days 3 4  
Month to date heating degree days 27 59  
Since 1 July heating degree days 4312 4549  
Cooling Degree Days 0 2  
Month to date cooling degree days 9 13  
Year to date cooling degree days 33 26  
Growing Degree Days 12 (Base 50)    
Moisture  
Dew Point 53 °F    
Average Humidity 65    
Maximum Humidity 90    
Minimum Humidity 39    
Precipitation  
Precipitation 0.15 in 0.12 in 1.82 in (1981)
Month to date precipitation 1.84 1.24  
Year to date precipitation 15.90 14.27  
Snow  
Snow 0.00 in 0.00 in 0.00 in ()
Month to date snowfall 0.0 0.0  
Since 1 July snowfall 17.1 22.4  
Snow Depth 0.00 in    
Sea Level Pressure  
Sea Level Pressure 29.99 in    
Wind  
Wind Speed 7 mph (NNE)    
Max Wind Speed 15 mph    
Max Gust Speed 19 mph    
Visibility 9 miles    
Events Rain    
T = Trace of Precipitation, MM = Missing Value Source: NWS Daily Summary

Daily Weather History Graph

Daily Weather History Graph

Search for Another Location

Airport or City:

Astronomy

May. 11, 2019 Rise Set
Actual Time 5:50 AM EDT 8:05 PM EDT
Civil Twilight 5:20 AM EDT 8:35 PM EDT
Nautical Twilight 4:42 AM EDT 9:12 PM EDT
Astronomical Twilight 4:02 AM EDT 9:53 PM EDT
Moon 11:56 AM EDT (5/11) 1:44 AM EDT (5/11)
Length of Visible Light 15h 15m
Length of Day
14h 14m
Waxing Crescent, 46% of the Moon is Illuminated
May 11
Waxing Crescent
May 11
First Quarter
May 18
Full
May 26
Last Quarter
Jun 3
New

Hourly Weather History & Observations

Time (EDT) Temp. Dew Point Humidity Pressure Visibility Wind Dir Wind Speed Gust Speed Precip Events Conditions
12:54 AM 69.1 °F 64.0 °F 84% 29.94 in 10.0 mi SSW 9.2 mph - 0.00 in   Overcast
1:54 AM 66.9 °F 64.0 °F 90% 29.96 in 10.0 mi South 8.1 mph - 0.00 in Rain Light Rain
2:22 AM 66.9 °F 64.9 °F 93% 29.96 in 8.0 mi WSW 8.1 mph - 0.01 in Rain Light Rain
2:46 AM 68.0 °F 64.0 °F 87% 29.95 in 10.0 mi WNW 3.5 mph - 0.01 in   Overcast
2:54 AM 68.0 °F 64.0 °F 87% 29.95 in 10.0 mi NNW 5.8 mph - 0.01 in   Overcast
3:54 AM 66.9 °F 63.0 °F 87% 29.96 in 10.0 mi NW 5.8 mph - N/A   Scattered Clouds
4:54 AM 64.0 °F 60.1 °F 87% 29.97 in 10.0 mi NNW 6.9 mph - N/A   Scattered Clouds
5:54 AM 62.1 °F 59.0 °F 90% 30.00 in 10.0 mi NNW 4.6 mph - N/A   Mostly Cloudy
6:54 AM 62.1 °F 55.9 °F 80% 30.02 in 10.0 mi NNW 12.7 mph - N/A   Overcast
7:54 AM 62.1 °F 51.1 °F 67% 30.04 in 10.0 mi NNW 11.5 mph - N/A   Mostly Cloudy
8:54 AM 63.0 °F 50.0 °F 63% 30.05 in 10.0 mi NNW 12.7 mph - N/A   Mostly Cloudy
9:54 AM 63.0 °F 51.1 °F 65% 30.04 in 10.0 mi North 9.2 mph - N/A   Mostly Cloudy
10:54 AM 64.0 °F 48.0 °F 56% 30.04 in 10.0 mi Variable 6.9 mph 19.6 mph N/A   Scattered Clouds
11:54 AM 66.9 °F 48.0 °F 51% 30.05 in 10.0 mi NW 10.4 mph - N/A   Mostly Cloudy
12:54 PM 69.1 °F 48.9 °F 49% 30.05 in 10.0 mi NE 4.6 mph - N/A   Mostly Cloudy
1:54 PM 69.1 °F 46.9 °F 45% 30.03 in 10.0 mi NNW 4.6 mph - N/A   Mostly Cloudy
2:54 PM 69.1 °F 48.9 °F 49% 30.01 in 10.0 mi ESE 6.9 mph - N/A   Mostly Cloudy
3:54 PM 69.1 °F 46.0 °F 44% 29.99 in 10.0 mi Variable 4.6 mph - N/A   Overcast
4:54 PM 68.0 °F 46.0 °F 45% 29.98 in 10.0 mi Calm Calm - N/A   Overcast
5:54 PM 68.0 °F 43.0 °F 40% 29.97 in 10.0 mi North 4.6 mph - N/A   Overcast
6:54 PM 66.9 °F 41.0 °F 39% 29.96 in 10.0 mi North 6.9 mph - N/A   Overcast
7:54 PM 66.9 °F 43.0 °F 42% 29.97 in 10.0 mi North 5.8 mph - N/A   Overcast
8:54 PM 61.0 °F 54.0 °F 78% 29.99 in 10.0 mi SE 8.1 mph - 0.00 in Rain Light Rain
9:54 PM 57.9 °F 52.0 °F 81% 29.99 in 10.0 mi SE 6.9 mph - 0.00 in Rain Light Rain
10:38 PM 55.9 °F 53.1 °F 90% 29.99 in 6.0 mi ESE 5.8 mph - 0.01 in Rain Light Rain
10:54 PM 55.9 °F 52.0 °F 87% 29.99 in 6.0 mi SE 8.1 mph - 0.01 in   Overcast
10:59 PM 55.9 °F 52.0 °F 87% 29.98 in 10.0 mi SE 4.6 mph - 0.00 in Rain Light Rain
11:22 PM 55.0 °F 52.0 °F 89% 29.98 in 7.0 mi ESE 5.8 mph - 0.02 in Rain Light Rain
11:54 PM 55.0 °F 51.1 °F 86% 29.96 in 8.0 mi ESE 10.4 mph - 0.03 in Rain Rain
11:57 PM 55.0 °F 51.1 °F 86% 29.96 in 6.0 mi ESE 10.4 mph - 0.00 in Rain Rain